Regional Weather Roundup
Issued by NWS Sioux Falls, SD

Home | Current Version | Previous Version | Text Only | Print | Product List | Glossary On
Versions: 1 2 3 4 5 6 7 8 9 10 11 12 13 14 15 16 17 18 19 20 21 22 23 24 25 26 27 28 29 30 31 32 33 34 35 36 37 38 39 40 41 42 43 44 45 46 47 48 49 50
000
ASUS43 KFSD 181102
RWRFSD

WEATHER ROUNDUP FOR SE SOUTH DAKOTA/SW MINNESOTA/NW IOWA
NATIONAL WEATHER SERVICE SIOUX FALLS SD
500 AM CST THU DEC 18 2014

NOTE: "FAIR" INDICATES FEW OR NO CLOUDS BELOW 12,000 FEET WITH NO
SIGNIFICANT WEATHER AND OR OBSTRUCTIONS TO VISIBILITY.


SDZ038>040-050-052>070-181200-
SOUTHEAST SOUTH DAKOTA

CITY           SKY/WX    TMP DP  RH WIND       PRES   REMARKS
CHAMBERLAIN    NOT AVBL
HURON          CLOUDY    18  14  84 SE6       30.20F WCI  10
MADISON        CLOUDY    16  16 100 MISG      30.18F
MITCHELL       CLOUDY    21  17  84 SE5       30.21S WCI  15
SIOUX FALLS    CLOUDY    18  14  84 E7        30.21F WCI   9
WINNER         CLOUDY    24  20  84 SE9       30.10F WCI  14
YANKTON        CLOUDY    21  18  86 E5        30.22S WCI  15
$$

MNZ071-072-080-081-089-090-097-098-181200-
SOUTHWEST MINNESOTA

CITY           SKY/WX    TMP DP  RH WIND       PRES   REMARKS
FAIRMONT       CLOUDY    10   7  85 CALM      30.25S
JACKSON        MOCLDY    12  10  92 CALM      30.23F
LUVERNE        CLOUDY    19  16  86 E3        30.22F
MARSHALL       MOCLDY     3  -2  78 CALM      30.24F
MONTEVIDEO     PTCLDY     3   0  85 CALM      30.28F
PIPESTONE      CLOUDY    16  12  86 CALM      30.19F
REDWOOD FALLS  PTCLDY     7   3  84 CALM      30.28F
TRACY          PTCLDY     9   7  90 CALM      30.24F
WINDOM           N/A      9   7  92 CALM      30.23F
WORTHINGTON    CLOUDY    12  10  92 SE3       30.22S
$$

IAZ001>003-012>014-020>022-031-032-NEZ013-014-SDZ071-181200-
NORTHWEST IOWA

CITY           SKY/WX    TMP DP  RH WIND       PRES   REMARKS
DENISON        CLOUDY    23  19  86 E7        30.21F WCI  15
ESTHERVILLE    MOCLDY    12  10  92 NE6       30.24F WCI   3
SIOUX CITY     CLOUDY    25  20  81 SE7       30.23S WCI  17
SPENCER        CLOUDY    17  13  84 E5        30.23F WCI  10
$$

ABBREVIATIONS USED IN REMARKS
   TC - TEMPERATURE IN CELSIUS
  WCI - WIND CHILL INDEX
   HX - HEAT INDEX
  VSB - VISIBILITY



USA.gov is the U.S. government's official web portal to all federal, state and local government web resources and services.